Tracking 19280 objects as of 15-Nov-2018
HD Live streaming from Space Station
objects crossing your sky now

COSMOS 1806

Track COSMOS 1806 now!
COSMOS 1806 is classified as:


NORAD ID: 17213
Int'l Code: 1986-098A
Perigee: 5,493.3 km
Apogee: 34,843.2 km
Inclination: 68.7 °
Period: 717.1 minutes
Semi major axis: 26539 km
RCS: 14.9345 m2 (large)
Launch date: December 12, 1986
Source: Commonwealth of Independent States (former USSR) (CIS)
Launch site: PLESETSK MISSILE AND SPACE COMPLEX (PKMTR)
aabbcc
Your satellite tracking list
Your tracking list is empty




NASA's NSSDC Master Catalog

Two Line Element Set (TLE):
1 17213U 86098A   18319.33321903 -.00000599  00000-0  00000+0 0  9994
2 17213  68.6686 265.1364 5529526 143.8891   3.8578  2.00802953233773
Source of the keplerian elements: AFSPC